{"data":{"norad_id":56127,"intl_designator":"2023-046AM","name":"STARLINK-6104","alt_names":[],"object_type":"PAYLOAD","status":"ACTIVE","operator":null,"country":"US","launch_date":"2023-03-29","launch_site_code":"AFETR","launch_vehicle":null,"mission":null,"orbit_class":"UNKNOWN","rcs_meters":null,"size_class":null,"mass_kg":null,"dimensions":null,"purposes":["comms"],"wikipedia_slug":null,"has_3d_model":false,"image_url":null,"decayed_at":null,"tle_current":{"epoch":"2026-09-20T00:46:10.081632Z","epoch_age_seconds":149511,"freshness":"FRESH","line1":"1 56127U 23046AM  26263.03206113  .00000425  00000+0  24990-4 0  9999","line2":"2 56127  43.0031 132.7405 0001296 274.4439  85.6265 15.27574180191886","mean_motion":15.2757418,"eccentricity":0.0001296,"inclination_deg":43.0031,"raan_deg":132.7405,"arg_perigee_deg":274.4439,"mean_anomaly_deg":85.6265,"bstar":2.499e-5,"rev_number":19188,"period_min":94.267107866408,"perigee_km":482.1773112921,"apogee_km":483.95573524533,"semimajor_km":6861.2035232687,"source":"CELESTRAK","updated_at":"2026-09-21T09:00:33.387247Z"}}}